Location: Cahas Mountain Overlook
(37.0833°N, 80.1000°W)
Time: 19:47:15
(UTC-04:00)

Explorer 7 - Pass Details

Date: 14 February 2026
Orbit: 430 x 541 km, 50.2° (Epoch: 13 March)

Event Time Altitude Azimuth Distance (km) Brightness Sun altitude
Rises 17:49:50 0° 276° (W) 2,463 11.6 1.0°
Reaches altitude 10° 17:52:29 10° 297° (WNW) 1,614 10.0 0.5°
Maximum altitude 17:55:01 18° 341° (NNW) 1,246 8.7 0.0°
Drops below altitude 10° 17:57:36 10° 25° (NNE) 1,666 8.9 -0.5°
Sets 18:00:24 0° 45° (NE) 2,577 9.7 -1.0°
